Change the Weather History Date:

Monday, April 28, 2014

  Actual Average Record
Temperature  
Mean Temperature 98 °F -  
Max Temperature 113 °F 101 °F 113 °F (2014)
Min Temperature 84 °F 79 °F 73 °F (2008)
Cooling Degree Days 34    
Growing Degree Days 48 (Base 50)    
Moisture  
Dew Point 59 °F    
Average Humidity 29    
Maximum Humidity 48    
Minimum Humidity 9    
Precipitation  
Precipitation 0.00 in 0.02 in - ()
Sea Level Pressure  
Sea Level Pressure 29.72 in    
Wind  
Wind Speed 4 mph ()    
Max Wind Speed 8 mph    
Max Gust Speed -    
Visibility 2.8 miles    
Events      
Averages and records for this station are not official NWS values.
T = Trace of Precipitation, MM = Missing Value Source: Averaged Metar Reports

Daily Weather History Graph

Daily Weather History Graph

Search for Another Location

Airport or City:

Trip Planner

Search our weather history database for the weather conditions in past years. The results will help you decide how hot, cold, wet, or windy it might be!

Date:

Astronomy

Apr. 28, 2014 Rise Set
Actual Time 6:08 AM IST 7:05 PM IST
Civil Twilight 5:45 AM IST 7:29 PM IST
Nautical Twilight 5:17 AM IST 7:56 PM IST
Astronomical Twilight 4:49 AM IST 8:25 PM IST
Moon 5:20 AM IST (4/28) 6:20 PM IST (4/28)
Length of Visible Light 13h 43m
Length of Day
12h 56m
Waning Crescent, 1% of the Moon is Illuminated
Apr 28
Waning Crescent
Apr 29
New
May 7
First Quarter
May 15
Full
May 21
Last Quarter

Hourly Weather History & Observations

Time (IST) Temp. Heat Index Dew Point Humidity Pressure Visibility Wind Dir Wind Speed Gust Speed Precip Events Conditions
12:10 AM 95.0 °F 94.4 °F 59.0 °F 30% 29.74 in 2.5 mi SW 4.6 mph - N/A   Smoke
12:40 AM 91.4 °F 90.7 °F 59.0 °F 34% 29.74 in 2.5 mi SW 4.6 mph - N/A   Smoke
1:10 AM 91.4 °F 90.7 °F 59.0 °F 34% 29.74 in 2.5 mi WSW 5.8 mph - N/A   Smoke
2:30 AM 90 °F - 60 °F 27% 29.74 in 2 mi WSW 3.5 mph - -   Smoke
2:40 AM 91.4 °F 90.7 °F 59.0 °F 34% 29.71 in 2.5 mi West 5.8 mph - N/A   Smoke
3:10 AM 91.4 °F 91.4 °F 60.8 °F 36% 29.71 in 2.5 mi West 5.8 mph - N/A   Smoke
3:40 AM 91.4 °F 91.4 °F 60.8 °F 36% 29.71 in 2.5 mi West 5.8 mph - N/A   Smoke
4:10 AM 89.6 °F 89.5 °F 60.8 °F 38% 29.71 in 2.5 mi WNW 4.6 mph - N/A   Smoke
4:40 AM 89.6 °F 90.1 °F 62.6 °F 40% 29.71 in 2.5 mi West 6.9 mph - N/A   Smoke
5:10 AM 87.8 °F 88.5 °F 62.6 °F 43% 29.71 in 2.5 mi West 4.6 mph - N/A   Smoke
5:30 AM 87 °F - 66 °F 41% 29.74 in 2 mi Calm Calm - -   Smoke
5:40 AM 87.8 °F 88.5 °F 62.6 °F 43% 29.74 in 2.5 mi WNW 3.5 mph - N/A   Smoke
6:40 AM 84.2 °F 85.0 °F 62.6 °F 48% 29.74 in 2.5 mi NW 3.5 mph - N/A   Smoke
7:10 AM 86.0 °F 86.6 °F 62.6 °F 45% 29.77 in 2.2 mi Variable 2.3 mph - N/A   Smoke
7:40 AM 87.8 °F 88.5 °F 62.6 °F 43% 29.77 in 2.2 mi NW 3.5 mph - N/A   Smoke
8:10 AM 89.6 °F 91.1 °F 64.4 °F 43% 29.77 in 2.2 mi Variable 3.5 mph - N/A   Smoke
8:30 AM 89 °F - 66 °F 36% 29.79 in 2 mi NNW 3.5 mph - -   Smoke
8:40 AM 89.6 °F 92.2 °F 66.2 °F 46% 29.80 in 2.2 mi NNW 6.9 mph - N/A   Smoke
9:10 AM 93.2 °F 96.2 °F 66.2 °F 41% 29.80 in 2.5 mi North 8.1 mph - N/A   Smoke
9:40 AM 95.0 °F 98.5 °F 66.2 °F 39% 29.80 in 2.5 mi North 6.9 mph - N/A   Smoke
10:10 AM 98.6 °F 102.8 °F 66.2 °F 35% 29.80 in 2.5 mi North 6.9 mph - N/A   Smoke
10:40 AM 102.2 °F 102.4 °F 59.0 °F 24% 29.77 in 3.1 mi ENE 5.8 mph - N/A   Smoke
11:10 AM 104.0 °F 103.4 °F 57.2 °F 21% 29.77 in 3.1 mi NNE 5.8 mph - N/A   Unknown
11:30 AM 103 °F - 59 °F 15% 29.79 in 2 mi NNW 4.6 mph - -  
11:40 AM 105.8 °F 106.8 °F 59.0 °F 22% 29.74 in 3.1 mi NNW 5.8 mph - N/A   Unknown
12:10 PM 107.6 °F 106.8 °F 55.4 °F 18% 29.74 in 3.1 mi NNW 5.8 mph - N/A   Unknown
12:40 PM 109.4 °F 108.6 °F 55.4 °F 17% 29.74 in 3.7 mi NNE 5.8 mph - N/A   Unknown
1:10 PM 111.2 °F 109.6 °F 53.6 °F 15% 29.71 in 3.7 mi ENE 6.9 mph - N/A   Unknown
1:40 PM 111.2 °F 110.4 °F 55.4 °F 16% 29.68 in 5.0 mi ENE 3.5 mph - N/A   Unknown
2:10 PM 111.2 °F 109.6 °F 53.6 °F 15% 29.68 in 5.0 mi NNE 3.5 mph - N/A   Unknown
2:30 PM 108 °F - 52 °F 9% 29.70 in 2 mi NNW 4.6 mph - -  
3:10 PM 113.0 °F 112.0 °F 55.4 °F 15% 29.65 in 5.0 mi NNE 5.8 mph - N/A   Unknown
3:40 PM 113.0 °F 112.0 °F 55.4 °F 15% 29.65 in 5.0 mi ENE 3.5 mph - N/A   Unknown
4:40 PM 113.0 °F - 50.0 °F 13% 29.62 in 5.0 mi NNE 4.6 mph - N/A   Partly Cloudy
5:10 PM 113.0 °F - 51.8 °F 13% 29.62 in 5.0 mi NNE 4.6 mph - N/A   Partly Cloudy
5:30 PM 109 °F - 55 °F 10% 29.65 in 2 mi West 3.5 mph - -   Scattered Clouds
5:40 PM 113.0 °F - 48.2 °F 12% 29.62 in 3.7 mi North 3.5 mph - N/A   Partly Cloudy
6:10 PM 111.2 °F - 48.2 °F 12% 29.62 in 3.7 mi West 2.3 mph - N/A   Partly Cloudy
7:10 PM 105.8 °F - 48.2 °F 14% 29.65 in 2.5 mi West 2.3 mph - N/A   Smoke
7:40 PM 102.2 °F - 50.0 °F 17% 29.65 in 2.5 mi Calm Calm - N/A   Smoke
8:10 PM 100.4 °F - 51.8 °F 20% 29.65 in 2.5 mi Calm Calm - N/A   Smoke
8:30 PM 90 °F - 63 °F 31% 29.70 in 2 mi Calm Calm - -   Smoke
9:10 PM 98.6 °F 99.4 °F 60.8 °F 29% 29.68 in 2.5 mi WSW 6.9 mph - N/A   Smoke
9:40 PM 96.8 °F 99.0 °F 64.4 °F 34% 29.71 in 2.5 mi SW 8.1 mph - N/A   Smoke
10:10 PM 96.8 °F 98.0 °F 62.6 °F 32% 29.71 in 2.5 mi SW 6.9 mph - N/A   Smoke
10:40 PM 95.0 °F 97.0 °F 64.4 °F 36% 29.74 in 2.5 mi SW 5.8 mph - N/A   Smoke
11:10 PM 95.0 °F 98.5 °F 66.2 °F 39% 29.74 in 2.5 mi SW 5.8 mph - N/A   Smoke
11:30 PM 92 °F - 70 °F 39% 29.74 in 2 mi SW 4.6 mph - -   Smoke
11:40 PM 93.2 °F 96.2 °F 66.2 °F 41% 29.74 in 2.5 mi SW 6.9 mph - N/A   Smoke